Weather Roundup
Issued by NWS Chicago, IL

Home | Current Version | Previous Version | Text Only | Print | Product List | Glossary Off
Versions: 1 2 3 4 5 6 7 8 9 10 11 12 13 14 15 16 17 18 19 20 21 22 23 24 25 26 27 28 29 30 31 32 33 34 35 36 37 38 39 40 41 42 43 44 45 46 47 48 49 50

000
NZUS59 KLOT 270621
HRRLOT

CHICAGO AREA WEATHER ROUNDUP
NATIONAL WEATHER SERVICE CHICAGO/ROMEOVILLE IL
100 AM CDT FRI MAR 27 2015

NOTE: "FAIR" INDICATES FEW OR NO CLOUDS BELOW 12,000 FEET WITH NO
SIGNIFICANT WEATHER AND/OR OBSTRUCTIONS TO VISIBILITY.

* THESE STATIONS ARE NOT UNDER NWS QUALITY CONTROL. THEY ALSO MAY NOT
  REPORT WEATHER SUCH AS PRECIPITATION OR FOG.

ILZ005-006-012>014-019>023-270700-
NORTHEAST ILLINOIS

CITY           SKY/WX    TMP DP  RH WIND       PRES   REMARKS
OHARE          MOCLDY    31  16  54 N9        30.07S WCI  23
6HR MIN TEMP:  31; 6HR MAX TEMP:  37;

MIDWAY         CLOUDY    34  16  47 N14G24    30.07S WCI  25
6HR MIN TEMP:  34; 6HR MAX TEMP:  40; 6HR PCP: TRACE;

AURORA         CLOUDY    32  17  54 N13       30.08S WCI  22
6HR MIN TEMP:  32; 6HR MAX TEMP:  37;

LANSING*       CLOUDY    33  18  54 N7G18     30.06S WCI  27
JOLIET*        CLOUDY    34  19  54 N10       30.08R WCI  26
WAUKEGAN       FLURRIES  28  25  88 N10       30.08S WCI  19
6HR MIN TEMP:  28; 6HR MAX TEMP:  35; 6HR PCP: TRACE;

DUPAGE AIRPORT CLOUDY    31  16  54 N9        30.07S WCI  23
6HR MIN TEMP:  31; 6HR MAX TEMP:  37;

WHEELING       CLOUDY    31  17  56 N9        30.09F WCI  23
6HR MIN TEMP:  31; 6HR MAX TEMP:  36;

KANKAKEE*      CLOUDY    35  24  64 N9        30.06S WCI  28
MORRIS*        CLOUDY    33  24  71 N7        30.07R WCI  26
LEWIS AIRPORT* CLOUDY    32  19  58 N10       30.07S WCI  24
NORTHERLY IS     N/A     32  25  76 MISG        N/A
$$

WIZ051-052-058>065-066-070>072-270700-
SOUTHEAST WISCONSIN

CITY           SKY/WX    TMP DP  RH WIND       PRES   REMARKS
MILWAUKEE      LGT SNOW  26  22  84 NE13      30.10S VSB 1   WCI  15
6HR MIN TEMP:  26; 6HR MAX TEMP:  34; 6HR PCP:  0.01;

KENOSHA*       LGT SNOW  28  25  88 NE12      30.09R FOG     WCI  18
RACINE*        LGT SNOW  27  22  81 N13       30.11S WCI  16
BURLINGTON     CLOUDY    27  19  69 N9        30.09S WCI  18
WAUKESHA       CLOUDY    27  18  69 N10       30.10S WCI  17
WEST BEND      LGT SNOW  23  19  86 N12       30.10S WCI  12
$$

INZ001>003-010>013-019-020-270700-
NORTHWEST INDIANA

CITY           SKY/WX    TMP DP  RH WIND       PRES   REMARKS
GARY*          CLOUDY    34  18  51 N15       30.07S WCI  25
MICHIGAN CITY* NOT AVBL
RENSSELAER*    NOT AVBL
VALPARAISO     CLOUDY    31  21  66 N14G22    30.03F WCI  21
$$

LMZ740>746-270700-
SOUTHERN LAKE MICHIGAN

STATION/POSITION TIME  SKY/WX   TEMP WIND        PRES    VSBY
                                AIR  DIR/SP/G
                 (UTC)          (F)  (DEG/KT/KT) (MB)    (MI)
HARRISON CRIB    0600            30   20/ 20/ 23   N/A
BURNHAM HARBOR   0600            31   10/ 15/ 16   N/A
CALUMET HARBOR   0500            33  330/ 12/ 17 1016.9F
BURNS HARBOR     0500            33  360/ 15/ 21 1018.3S
MICHIGAN CITY    0600            29  360/ 22/ 24   N/A
$$

ABBREVIATIONS USED IN REMARKS
   TC - TEMPERATURE IN CELSIUS
  WCI - WIND CHILL INDEX
   HX - HEAT INDEX
  VSB - VISIBILITY
$$


USA.gov is the U.S. government's official web portal to all federal, state and local government web resources and services.